#timestamp,LO_Frequency,Hit,StdDev 
1589490015.1,286047000.1,N
1589490035.9,286047000.9,N
1589490055.7,286046999.4,N
1589490075.6,286046999.5,N
1589490095.4,286046999.4,N
1589490115.2,286046997.1,N
1589490135.1,286046999.3,N
1589490136.0,286046999.3,N
1589490155.8,286046998.3,N
1589490175.7,286046999.9,N
1589490195.5,286047002.2,N
1589490215.3,286046999.7,N
1589490235.2,286046999.9,N
1589490255.0,286047001.1,N
1589490255.9,286047001.1,N
1589490275.8,286046999.3,N
1589490295.6,286047000.9,N
1589490315.4,286047000.9,N
1589490335.3,286046997.1,N
1589490355.1,286046996.1,Y
1589490375.8,286046996.7,P
1589490395.7,286046999.5,N
1589490415.5,286046998.8,N
1589490435.4,286046998.9,N
1589490455.2,286046998.1,N
1589490475.0,286046998.4,N
1589490475.9,286046998.4,N
1589490495.8,286047000.2,N
1589490515.6,286047000.8,N
1589490535.5,286047000.7,N
1589490555.3,286047000.7,N
1589490575.1,286046998.3,N
1589490595.9,286046997.8,N
1589490615.7,286046994.9,Y
1589490635.5,286046995.0,P
1589490655.4,286046995.1,N
1589490675.2,286046995.7,N
1589490695.1,286046997.2,N
1589490696.0,286046997.2,N
1589490715.8,286046999.4,N
1589490735.6,286046997.2,N
1589490755.5,286046996.6,N
1589490775.3,286046997.2,N
1589490795.2,286046996.8,N
1589490815.9,286046999.6,N
1589490835.7,286046995.2,Y
1589490855.6,286046999.6,P
1589490875.4,286047000.6,N
1589490895.3,286047002.1,N
1589490915.1,286047002.1,N
1589490916.0,286047002.1,N
1589490935.8,286047002.8,N
1589490955.7,286047002.1,N
1589490975.5,286047001.9,N
1589490995.4,286047006.0,Y
1589491015.2,286047002.1,P
1589491035.0,286047001.7,P
1589491035.9,286047001.7,P
1589491055.8,286047001.6,Y
1589491075.6,286046999.2,P
1589491095.5,286046997.3,N
1589491115.3,286046997.2,N
1589491135.1,286047002.4,N
1589491155.9,286046998.5,N
1589491175.7,286047000.5,N
1589491195.5,286047000.0,N
1589491215.4,286047000.6,N
1589491235.2,286047000.6,N
1589491255.1,286047000.0,N
1589491256.0,286047000.0,N
1589491275.8,286047000.1,N
1589491295.6,286047002.8,N
1589491315.5,286047000.9,N
1589491335.3,286046998.4,N
1589491355.2,286046997.2,N
1589491375.9,286046998.7,N
1589491395.7,286046999.5,N
1589491415.6,286046996.6,N
1589491435.4,286047001.1,N
1589491455.3,286046998.6,N
1589491475.1,286047000.3,N
1589491476.0,286047000.3,N
1589491495.8,286047000.0,N
1589491515.7,286047000.4,N
1589491535.5,286047000.2,N
1589491555.4,286047000.5,N
1589491575.2,286047000.4,N
1589491595.0,286047001.0,N
1589491595.9,286047001.0,N
1589491615.8,286047000.3,N
1589491635.6,286046999.9,N
1589491655.5,286046998.8,N
1589491675.3,286047000.0,N
1589491695.1,286047001.0,N
1589491715.9,286047000.3,N
1589491735.7,286047001.9,N
1589491755.6,286047000.9,N
1589491775.4,286047002.6,N
1589491795.2,286047000.7,N
1589491815.1,286047000.8,N
1589491816.0,286047000.8,N
1589491835.8,286046999.8,N
1589491855.7,286047000.7,N
1589491875.5,286047001.5,N
1589491895.3,286047004.1,Y
1589491915.2,286047000.1,P
1589491935.0,286047002.1,P
1589491935.9,286047002.1,N
1589491955.8,286047004.3,Y
1589491975.6,286047001.7,P
1589491995.4,286047002.2,P
1589492015.3,286047002.6,P
1589492035.1,286046999.7,N
1589492055.8,286047000.3,N
1589492075.7,286047001.6,N
1589492095.5,286047001.6,N
1589492115.4,286047001.2,N
1589492135.2,286047002.2,N
1589492155.0,286047000.0,N
1589492155.9,286047000.0,N
1589492175.8,286047001.9,N
1589492195.6,286047000.0,N
1589492215.5,286047000.6,N
1589492235.3,286046998.4,N
1589492255.1,286046999.9,N
1589492275.9,286047000.8,N
1589492295.7,286047000.9,N
1589492315.5,286047002.3,N
1589492335.4,286047000.7,N
1589492355.2,286047000.2,N
1589492375.1,286046998.1,N
1589492376.0,286046998.1,N
1589492395.8,286046998.5,N
1589492415.6,286047001.2,N
1589492435.5,286046999.4,N
1589492455.3,286046997.0,N
1589492475.2,286046999.4,N
1589492495.9,286047000.3,N
1589492515.7,286047001.2,N
1589492535.6,286046998.1,N
1589492555.4,286046998.5,N
1589492575.3,286047000.3,N
1589492595.1,286047001.1,N
1589492596.0,286047001.1,N
1589492615.8,286046998.3,N
1589492635.7,286046998.6,N
1589492655.5,286046998.2,N
1589492675.3,286046998.7,N
1589492695.2,286046998.7,N
1589492715.0,286046997.5,N
1589492715.9,286046997.5,N
1589492735.8,286046996.4,N
1589492755.6,286046995.8,N
1589492775.4,286046995.6,N
1589492795.3,286046995.4,N
1589492815.1,286046999.1,N
1589492835.9,286046998.3,N
1589492855.7,286046998.1,N
1589492875.5,286046999.5,N
1589492895.4,286046998.4,N
1589492915.2,286047002.8,N
1589492935.0,286046998.5,N
1589492936.0,286046998.5,N
1589492955.8,286046999.5,N
1589492975.6,286046997.0,N
1589492995.5,286047000.0,N
1589493015.3,286047002.7,N
1589493035.1,286046999.9,N
1589493055.9,286047000.8,N
1589493075.7,286047000.4,N
1589493095.6,286047002.3,N
1589493115.4,286047000.1,N
1589493135.2,286047001.5,N
1589493155.1,286047002.8,N
1589493156.0,286047002.8,N
1589493175.8,286047002.0,N
1589493195.7,286047002.8,N
1589493215.5,286047000.4,N
1589493235.3,286046998.5,N
1589493255.2,286047001.2,N
1589493275.0,286046999.9,N
1589493275.9,286046999.9,N
1589493295.8,286046998.2,N
1589493315.6,286047000.0,N
1589493335.4,286047000.7,N
1589493355.3,286046998.7,N
1589493375.1,286047002.8,N
1589493395.8,286047002.4,N
1589493415.7,286047004.0,N
1589493435.5,286047002.4,N
1589493455.4,286047002.5,N
1589493475.2,286047003.4,N
1589493495.0,286047001.5,N
1589493495.9,286047001.5,N
1589493515.8,286047002.6,N
1589493535.6,286047004.3,N
1589493555.5,286047003.9,N
1589493575.3,286047000.3,N
1589493595.1,286047005.6,Y
